CAPE
0 0 0 0 0 0 0 0 0 0 0 0 0 0 0 0 0 0 0 0 0 0 0 0 0 0 0 2 7 204 187 168 119 21 0 3 0 0 2 3 5 7 30 89 128 286 519 671 511
0 0 0 0 0 0 0 0 0 0 0 0 0 0 0 0 0 0 0 0 0 0 0 0 0 0 0 0 3 7 188 138 163 173 80 85 24 18 1 8 0 17 8 81 120 214 369 534 379
0 0 0 0 0 0 0 0 0 0 0 0 0 0 0 0 0 0 0 0 0 0 0 0 0 0 0 0 3 3 7 134 105 163 159 104 95 102 54 18 10 2 10 24 120 173 368 254 257
0 0 0 0 0 0 0 0 0 0 0 0 0 0 0 0 0 0 0 0 0 0 0 0 0 0 0 1 0 4 2 62 98 36 133 87 75 68 67 32 11 17 21 15 112 105 154 298 229
0 0 0 0 0 0 0 0 0 0 0 0 0 0 0 0 0 0 0 0 0 0 0 0 0 0 0 3 5 6 7 14 20 16 37 48 36 23 52 40 35 39 26 7 23 110 131 60 194
0 0 0 0 0 0 0 0 0 0 0 0 0 0 0 0 0 0 0 0 0 0 0 0 0 0 0 0 5 2 6 17 22 14 10 9 11 17 18 6 27 11 10 4 41 8 66 164 95
0 0 0 0 0 0 0 0 0 0 0 0 0 0 0 0 0 0 0 0 0 0 0 0 0 0 0 0 0 2 2 8 25 16 4 3 5 5 8 3 4 5 4 14 38 9 1 65 30
0 0 0 0 0 0 0 0 0 0 0 0 0 0 0 0 0 0 0 0 0 0 0 0 0 0 0 0 0 1 3 3 10 19 10 0 2 1 2 3 3 4 2 6 24 14 5 0 13
0 0 0 0 0 0 0 0 0 0 0 0 0 0 0 0 0 0 0 0 0 0 0 0 0 0 0 0 3 0 1 1 1 17 21 16 5 2 0 2 2 4 1 0 5 5 6 2 0
0 0 0 0 0 0 0 0 0 0 0 0 0 0 0 0 0 0 0 0 0 0 0 0 0 0 0 0 3 4 8 0 13 12 16 21 18 4 4 2 1 2 0 1 2 5 4 3 1
0 0 0 0 0 0 0 0 0 0 0 0 0 0 0 0 0 0 0 0 0 0 0 0 0 0 0 0 6 2 23 4 9 3 4 3 6 4 3 4 3 2 0 1 2 0 1 1 2
0 0 0 0 0 0 0 0 0 0 0 0 0 0 0 0 0 0 0 0 0 0 0 0 0 0 0 0 2 3 9 2 7 3 2 3 4 4 3 2 2 0 1 0 1 1 1 0 0
0 0 0 0 0 0 0 0 0 0 0 0 0 0 0 0 0 0 0 0 0 0 0 0 0 0 0 0 1 8 7 4 3 3 3 3 5 3 4 2 3 2 2 1 2 0 1 0 0
0 0 0 0 0 0 0 0 0 0 0 0 0 0 0 0 0 0 0 0 0 0 0 0 0 0 0 0 0 4 7 3 5 4 5 3 3 3 3 3 2 1 5 4 0 1 0 0 1
0 0 0 0 0 0 0 0 0 0 0 0 0 0 0 0 0 0 0 0 0 0 0 0 0 0 0 0 3 3 1 5 6 6 2 3 3 2 1 4 2 1 2 4 0 0 0 1 0
0 0 0 0 0 0 0 0 0 0 0 0 0 0 0 0 0 0 0 0 0 0 0 0 0 0 0 0 0 0 0 0 0 0 2 1 1 1 2 3 4 4 1 1 3 0 0 0 0
0 0 0 0 0 0 0 0 0 0 0 0 0 0 0 0 0 0 0 0 0 0 0 0 0 0 0 0 0 0 0 0 0 0 0 0 0 2 2 3 3 3 1 2 3 0 0 0 1
0 0 0 0 0 0 0 0 0 0 0 0 0 0 0 0 0 0 0 0 0 0 0 0 0 0 0 0 0 0 0 0 0 0 0 0 0 0 1 2 3 2 3 3 1 1 1 2 1
0 0 0 0 0 0 0 0 0 0 0 0 0 0 0 0 0 0 0 0 0 0 0 0 0 0 0 0 0 0 0 0 0 0 0 0 0 0 0 0 2 2 2 3 1 1 1 1 2
0 0 0 0 0 0 0 0 0 0 0 0 0 0 0 0 0 0 0 0 0 0 0 0 0 0 0 0 0 0 0 0 0 0 0 0 0 0 0 0 0 2 2 2 3 1 1 1 1
0 0 0 0 0 0 0 0 0 0 0 0 0 0 0 0 0 0 0 0 0 0 0 0 0 0 0 0 0 0 0 0 0 0 0 0 0 0 0 0 1 1 2 4 3 2 0 1 1
0 0 0 0 0 0 0 0 0 0 0 0 0 0 0 0 0 0 0 0 0 0 0 0 0 0 0 0 0 0 0 0 0 0 0 0 0 0 0 0 1 0 1 2 4 4 4 1 1
0 0 0 0 0 0 0 0 0 0 0 0 0 0 0 0 0 0 0 0 0 0 0 0 0 0 0 0 0 0 0 0 0 0 0 0 0 0 0 0 0 1 2 1 1 6 3 2 3
0 0 0 0 0 0 0 0 0 0 0 0 0 0 0 0 0 0 0 0 0 0 0 0 0 0 0 0 0 0 0 0 0 0 0 0 0 0 0 0 0 0 0 2 2 4 3 3 1
0 0 0 0 0 0 0 0 0 0 0 0 0 0 0 0 0 0 0 0 0 0 0 0 0 0 0 0 0 0 0 0 0 0 0 0 0 0 0 0 0 0 0 0 1 2 3 3 2
0 0 0 0 0 0 0 0 0 0 0 0 0 0 0 0 0 0 0 0 0 0 0 0 0 0 0 0 0 0 0 0 0 0 0 0 0 0 0 0 0 0 0 0 0 3 2 3 3
0 0 0 0 0 0 0 0 0 0 0 0 0 0 0 0 0 0 0 0 0 0 0 0 0 0 0 0 0 0 0 0 0 0 0 0 0 0 0 0 0 0 0 0 0 0 2 1 2
0 0 0 0 0 0 0 0 0 0 0 0 0 0 0 0 0 0 0 0 0 0 0 0 0 0 0 0 0 0 0 0 0 0 0 0 0 0 0 0 0 0 0 0 0 0 0 0 2
0 0 0 0 0 0 0 0 0 0 0 0 0 0 0 0 0 0 0 0 0 0 0 0 0 0 0 0 0 0 0 0 0 0 0 0 0 0 0 0 0 0 0 0 0 0 0 0 0
0 0 0 0 0 0 0 0 0 0 0 0 0 0 0 0 0 0 0 0 0 0 0 0 0 0 0 0 0 0 0 0 0 0 0 0 0 0 0 0 0 0 0 0 0 0 0 0 0
CIN
-0 -0 -0 -0 -0 -0 -0 -0 -0 -0 -0 -0 -0 -0 -0 -0 -0 -0 -0 -0 -0 -0 -0 -0 -0 -0 -0 -0 -0 -0 -0 -0 -0 -2 -0 -0 -0 -0 -0 -0 -0 -0 -16 -0 -0 -0 -0 -1 -4
-0 -0 -0 -0 -0 -0 -0 -0 -0 -0 -0 -0 -0 -0 -0 -0 -0 -0 -0 -0 -0 -0 -0 -0 -0 -0 -0 -0 -0 -0 -0 -0 -0 -0 -1 -3 -30 -8 -52 -0 -15 -0 -1 -0 -0 -0 -0 -1 -5
-0 -0 -0 -0 -0 -0 -0 -0 -0 -0 -0 -0 -0 -0 -0 -0 -0 -0 -0 -0 -0 -0 -0 -0 -0 -0 -0 -0 -0 -0 -0 -0 -1 -1 -0 -0 -11 -1 -54 -2 -0 -0 -0 -1 -0 -0 -1 -2 -5
-0 -0 -0 -0 -0 -0 -0 -0 -0 -0 -0 -0 -0 -0 -0 -0 -0 -0 -0 -0 -0 -0 -0 -0 -0 -0 -0 -0 -0 -0 -0 -9 -1 -8 -0 -6 -15 -5 -10 -20 -0 -7 -0 -15 -0 -2 -7 -0 -2
-0 -0 -0 -0 -0 -0 -0 -0 -0 -0 -0 -0 -0 -0 -0 -0 -0 -0 -0 -0 -0 -0 -0 -0 -0 -0 -0 -0 -0 -0 -0 -3 -0 -0 -7 -3 -55 -24 -13 -17 -22 -30 -0 -0 -5 -0 -0 -4 -1
-0 -0 -0 -0 -0 -0 -0 -0 -0 -0 -0 -0 -0 -0 -0 -0 -0 -0 -0 -0 -0 -0 -0 -0 -0 -0 -0 -0 -0 -0 -0 -0 -0 -0 -0 -0 -5 -18 -34 -25 -27 -29 -0 -1 -0 -0 -5 -0 -2
-0 -0 -0 -0 -0 -0 -0 -0 -0 -0 -0 -0 -0 -0 -0 -0 -0 -0 -0 -0 -0 -0 -0 -0 -0 -0 -0 -0 -0 -0 -0 -4 -0 -0 -0 -4 -0 -0 -0 -4 -0 -91 -0 -0 -0 -0 -14 -5 -32
-0 -0 -0 -0 -0 -0 -0 -0 -0 -0 -0 -0 -0 -0 -0 -0 -0 -0 -0 -0 -0 -0 -0 -0 -0 -0 -0 -0 -0 -0 -0 -0 -0 -0 -3 -0 -1 -0 -0 -0 -0 -0 -0 -29 -21 -0 -0 -0 -0
-0 -0 -0 -0 -0 -0 -0 -0 -0 -0 -0 -0 -0 -0 -0 -0 -0 -0 -0 -0 -0 -0 -0 -0 -0 -0 -0 -0 -0 -0 -0 -0 -0 -0 -0 -0 -5 -1 -0 -0 -0 -0 -0 -0 -0 -0 -0 -0 -0
-0 -0 -0 -0 -0 -0 -0 -0 -0 -0 -0 -0 -0 -0 -0 -0 -0 -0 -0 -0 -0 -0 -0 -0 -0 -0 -0 -0 -0 -0 -0 -1 -0 -0 -2 -5 -0 -0 -0 -0 -0 -0 -0 -0 -0 -0 -0 -0 -0
-0 -0 -0 -0 -0 -0 -0 -0 -0 -0 -0 -0 -0 -0 -0 -0 -0 -0 -0 -0 -0 -0 -0 -0 -0 -0 -0 -0 -0 -0 -0 -0 -0 -0 -0 -0 -0 -0 -0 -0 -0 -0 -0 -0 -0 -0 -0 -0 -0
-0 -0 -0 -0 -0 -0 -0 -0 -0 -0 -0 -0 -0 -0 -0 -0 -0 -0 -0 -0 -0 -0 -0 -0 -0 -0 -0 -0 -1 -0 -0 -0 -0 -0 -0 -0 -0 -0 -0 -0 -0 -0 -0 -0 -0 -0 -0 -0 -0
-0 -0 -0 -0 -0 -0 -0 -0 -0 -0 -0 -0 -0 -0 -0 -0 -0 -0 -0 -0 -0 -0 -0 -0 -0 -0 -0 -0 -0 -0 -0 -0 -0 -0 -0 -0 -0 -0 -0 -0 -0 -0 -0 -0 -0 -0 -0 -0 -0
-0 -0 -0 -0 -0 -0 -0 -0 -0 -0 -0 -0 -0 -0 -0 -0 -0 -0 -0 -0 -0 -0 -0 -0 -0 -0 -0 -0 -0 -0 -0 -0 -0 -0 -0 -0 -0 -0 -0 -0 -0 -0 -0 -0 -0 -0 -0 -0 -0
-0 -0 -0 -0 -0 -0 -0 -0 -0 -0 -0 -0 -0 -0 -0 -0 -0 -0 -0 -0 -0 -0 -0 -0 -0 -0 -0 -0 -0 -0 -0 -0 -0 -0 -0 -0 -0 -0 -0 -0 -0 -0 -0 -0 -0 -0 -0 -0 -0
-0 -0 -0 -0 -0 -0 -0 -0 -0 -0 -0 -0 -0 -0 -0 -0 -0 -0 -0 -0 -0 -0 -0 -0 -0 -0 -0 -0 -0 -0 -0 -0 -0 -0 -0 -0 -0 -0 -0 -0 -0 -0 -0 -0 -0 -0 -0 -0 -0
-0 -0 -0 -0 -0 -0 -0 -0 -0 -0 -0 -0 -0 -0 -0 -0 -0 -0 -0 -0 -0 -0 -0 -0 -0 -0 -0 -0 -0 -0 -0 -0 -0 -0 -0 -0 -0 -0 -0 -0 -0 -0 -0 -0 -0 -0 -0 -0 -0
-0 -0 -0 -0 -0 -0 -0 -0 -0 -0 -0 -0 -0 -0 -0 -0 -0 -0 -0 -0 -0 -0 -0 -0 -0 -0 -0 -0 -0 -0 -0 -0 -0 -0 -0 -0 -0 -0 -0 -0 -0 -0 -0 -0 -0 -0 -0 -0 -0
-0 -0 -0 -0 -0 -0 -0 -0 -0 -0 -0 -0 -0 -0 -0 -0 -0 -0 -0 -0 -0 -0 -0 -0 -0 -0 -0 -0 -0 -0 -0 -0 -0 -0 -0 -0 -0 -0 -0 -0 -0 -0 -0 -0 -0 -0 -0 -0 -0
-0 -0 -0 -0 -0 -0 -0 -0 -0 -0 -0 -0 -0 -0 -0 -0 -0 -0 -0 -0 -0 -0 -0 -0 -0 -0 -0 -0 -0 -0 -0 -0 -0 -0 -0 -0 -0 -0 -0 -0 -0 -0 -0 -0 -0 -0 -0 -0 -0
-0 -0 -0 -0 -0 -0 -0 -0 -0 -0 -0 -0 -0 -0 -0 -0 -0 -0 -0 -0 -0 -0 -0 -0 -0 -0 -0 -0 -0 -0 -0 -0 -0 -0 -0 -0 -0 -0 -0 -0 -0 -0 -0 -0 -0 -0 -0 -0 -0
-0 -0 -0 -0 -0 -0 -0 -0 -0 -0 -0 -0 -0 -0 -0 -0 -0 -0 -0 -0 -0 -0 -0 -0 -0 -0 -0 -0 -0 -0 -0 -0 -0 -0 -0 -0 -0 -0 -0 -0 -0 -0 -0 -0 -0 -0 -0 -0 -0
-0 -0 -0 -0 -0 -0 -0 -0 -0 -0 -0 -0 -0 -0 -0 -0 -0 -0 -0 -0 -0 -0 -0 -0 -0 -0 -0 -0 -0 -0 -0 -0 -0 -0 -0 -0 -0 -0 -0 -0 -0 -0 -0 -0 -0 -0 -0 -0 -0
-0 -0 -0 -0 -0 -0 -0 -0 -0 -0 -0 -0 -0 -0 -0 -0 -0 -0 -0 -0 -0 -0 -0 -0 -0 -0 -0 -0 -0 -0 -0 -0 -0 -0 -0 -0 -0 -0 -0 -0 -0 -0 -0 -0 -0 -0 -0 -0 -0
-0 -0 -0 -0 -0 -0 -0 -0 -0 -0 -0 -0 -0 -0 -0 -0 -0 -0 -0 -0 -0 -0 -0 -0 -0 -0 -0 -0 -0 -0 -0 -0 -0 -0 -0 -0 -0 -0 -0 -0 -0 -0 -0 -0 -0 -0 -0 -0 -0
-0 -0 -0 -0 -0 -0 -0 -0 -0 -0 -0 -0 -0 -0 -0 -0 -0 -0 -0 -0 -0 -0 -0 -0 -0 -0 -0 -0 -0 -0 -0 -0 -0 -0 -0 -0 -0 -0 -0 -0 -0 -0 -0 -0 -0 -0 -0 -0 -0
-0 -0 -0 -0 -0 -0 -0 -0 -0 -0 -0 -0 -0 -0 -0 -0 -0 -0 -0 -0 -0 -0 -0 -0 -0 -0 -0 -0 -0 -0 -0 -0 -0 -0 -0 -0 -0 -0 -0 -0 -0 -0 -0 -0 -0 -0 -0 -0 -0
-0 -0 -0 -0 -0 -0 -0 -0 -0 -0 -0 -0 -0 -0 -0 -0 -0 -0 -0 -0 -0 -0 -0 -0 -0 -0 -0 -0 -0 -0 -0 -0 -0 -0 -0 -0 -0 -0 -0 -0 -0 -0 -0 -0 -0 -0 -0 -0 -0
-0 -0 -0 -0 -0 -0 -0 -0 -0 -0 -0 -0 -0 -0 -0 -0 -0 -0 -0 -0 -0 -0 -0 -0 -0 -0 -0 -0 -0 -0 -0 -0 -0 -0 -0 -0 -0 -0 -0 -0 -0 -0 -0 -0 -0 -0 -0 -0 -0
-0 -0 -0 -0 -0 -0 -0 -0 -0 -0 -0 -0 -0 -0 -0 -0 -0 -0 -0 -0 -0 -0 -0 -0 -0 -0 -0 -0 -0 -0 -0 -0 -0 -0 -0 -0 -0 -0 -0 -0 -0 -0 -0 -0 -0 -0 -0 -0 -0
Wind_Speed
9 14 16 15 20 23 24 23 24 22 22 27 29 28 30 29 28 21 10 29 20 20 22 38 39 36 33 33 34 39 35 34 35 35 35 35 34 33 34 33 32 31 31 32 36 39 30 21 15
13 15 16 16 20 21 23 23 24 23 21 21 24 23 26 29 30 23 30 13 9 9 22 39 38 38 36 36 39 39 39 37 36 37 36 35 35 35 36 35 35 32 32 33 36 40 39 27 17
15 16 18 19 20 20 20 21 22 23 22 18 20 25 21 15 27 20 20 15 8 34 39 40 42 42 41 39 39 39 38 38 37 36 35 36 36 37 34 34 34 34 33 35 37 40 40 33 19
17 17 20 22 23 23 22 20 19 20 23 22 21 22 23 26 18 19 25 35 38 39 40 40 41 42 41 40 41 40 39 37 37 36 36 35 34 36 35 33 32 34 34 35 37 40 40 34 24
17 17 18 20 20 21 21 21 20 20 21 21 17 21 21 24 24 26 32 35 38 39 39 40 41 42 41 40 39 40 38 37 38 37 36 36 35 34 35 35 33 34 33 34 36 36 41 34 20
16 16 18 18 18 19 20 20 20 21 20 21 22 22 22 26 31 31 31 35 36 39 39 39 41 42 42 40 40 39 39 39 37 37 37 37 36 35 34 35 34 32 33 32 35 32 34 18 13
16 17 16 16 16 17 17 19 20 20 21 23 19 19 19 31 33 32 33 35 37 39 39 41 41 41 40 39 40 40 39 38 38 36 36 37 36 35 35 33 33 33 33 32 34 32 32 36 18
15 15 15 14 13 15 15 17 19 20 21 20 25 21 21 30 32 31 31 35 37 39 41 42 42 41 40 38 40 40 41 41 39 37 35 36 36 36 35 34 33 33 33 32 31 29 25 29 25
15 13 13 13 13 13 14 16 18 19 22 24 22 23 25 28 30 31 33 36 38 40 41 42 43 43 42 40 40 41 41 42 40 38 38 37 36 36 36 35 35 34 33 32 30 29 25 22 20
15 13 13 14 14 13 14 15 16 17 20 21 23 24 25 27 30 33 35 37 40 42 43 44 44 44 43 40 39 40 40 42 41 41 40 37 35 36 35 34 35 34 33 32 30 28 25 24 15
16 12 14 15 15 14 15 15 15 16 20 21 22 24 26 28 30 32 34 36 38 39 41 43 45 44 44 42 41 40 38 41 40 41 40 39 37 36 35 34 33 33 32 30 28 27 24 22 20
13 14 13 13 14 13 14 15 18 18 17 20 21 23 24 27 29 31 33 35 38 40 41 43 44 44 43 40 40 41 41 42 41 40 41 39 38 37 35 34 34 32 31 29 27 25 23 21 19
13 13 14 14 13 13 14 15 16 18 17 18 20 21 24 26 27 30 32 34 36 39 41 43 44 44 43 43 42 42 41 41 41 41 40 40 38 37 35 34 33 32 31 29 26 24 23 21 19
11 13 13 14 13 12 13 14 15 17 15 16 18 21 22 25 27 28 31 33 36 38 41 42 44 44 43 42 43 42 42 41 41 41 41 40 38 38 36 35 34 32 31 29 26 25 23 21 20
12 11 12 14 10 10 12 17 18 17 12 15 17 19 21 23 26 28 30 32 35 37 39 41 42 43 43 41 42 41 42 40 41 40 41 41 40 39 38 36 34 33 31 29 26 24 22 19 20
10 9 11 13 10 9 11 15 17 13 12 13 15 17 19 22 25 27 29 31 34 36 38 39 41 42 42 42 40 40 41 41 41 40 41 41 40 40 37 36 35 33 32 29 27 25 23 20 19
9 11 10 11 13 11 7 15 13 11 11 12 14 15 18 21 24 27 29 31 33 35 37 38 40 41 41 40 39 39 40 41 41 41 41 41 40 39 38 36 36 35 32 30 28 25 24 21 21
10 11 10 10 13 8 9 12 10 9 9 11 13 14 17 20 23 26 28 30 33 34 35 37 39 41 40 39 39 38 39 41 41 42 42 41 39 39 38 36 36 34 33 31 29 26 24 23 20
13 11 10 11 12 12 10 10 9 8 8 10 11 13 16 19 21 25 27 30 32 33 34 36 38 40 40 39 40 40 42 41 40 41 43 42 40 39 37 36 35 34 33 33 29 26 25 24 23
10 8 12 13 14 13 11 12 10 7 8 9 10 12 15 19 22 26 28 29 31 32 34 35 37 38 38 38 38 39 40 39 39 40 41 41 41 39 37 35 34 33 32 31 30 27 27 26 24
13 12 10 14 11 15 13 15 9 8 8 8 9 11 14 18 21 25 29 30 30 32 33 33 35 36 36 37 37 38 37 37 40 41 40 40 40 38 37 35 33 32 31 31 30 29 29 29 26
12 14 11 11 11 19 12 23 10 7 8 7 7 8 13 17 20 24 28 31 30 30 30 31 32 34 34 36 38 39 39 40 39 39 37 38 39 38 37 35 32 32 31 30 29 27 27 27 28
14 12 14 15 17 21 17 21 23 7 9 6 6 8 12 15 20 24 28 30 29 29 29 30 31 32 34 35 36 37 38 37 36 37 37 38 37 38 36 35 32 31 31 30 29 28 26 24 28
7 11 16 18 20 22 18 16 18 12 9 6 5 7 10 14 19 23 26 27 28 28 28 29 30 32 33 34 35 37 38 37 37 36 36 36 36 37 35 35 33 32 31 30 29 29 28 27 27
13 11 20 22 19 21 18 17 18 11 16 5 5 8 10 14 18 22 25 27 28 29 29 28 29 32 32 32 34 36 37 37 36 35 34 34 34 36 36 34 33 32 32 31 30 29 28 28 28
10 15 18 23 22 23 19 20 22 17 12 10 6 7 10 13 17 20 23 26 27 28 28 29 30 30 31 31 33 34 36 35 34 33 33 33 32 34 36 34 31 31 31 30 29 28 28 28 28
15 18 19 23 25 26 21 22 20 14 11 9 8 8 10 13 16 18 21 24 25 26 26 28 28 29 30 31 32 34 35 35 34 33 33 33 32 36 35 33 32 31 30 30 30 29 29 28 28
17 15 21 20 25 27 22 24 21 15 10 9 8 9 9 12 14 17 20 22 23 24 24 26 27 29 28 29 31 32 33 33 32 33 33 32 31 35 35 34 32 31 30 29 30 29 28 27 27
16 20 19 21 21 26 30 26 19 15 10 9 8 8 8 10 13 16 19 20 21 22 23 25 26 28 28 29 30 32 32 32 32 32 32 31 31 33 37 35 33 31 31 29 28 28 28 27 27
19 20 17 22 24 23 27 30 20 18 14 9 9 8 8 10 12 15 17 19 20 21 22 24 26 27 27 28 30 31 31 31 31 32 31 30 29 27 34 35 34 32 31 30 28 27 28 27 26
Wind_Direction
163 114 101 101 71 70 66 75 72 79 70 57 49 52 43 30 32 52 15 325 309 311 313 334 332 327 323 324 327 344 359 359 355 353 346 335 325 312 312 310 311 299 290 277 264 257 268 272 270
114 106 86 89 75 71 65 64 62 66 74 78 65 64 49 40 18 40 344 308 340 354 24 0 330 330 326 328 338 342 351 358 356 353 347 336 328 319 315 306 307 302 292 284 270 258 258 268 264
95 90 56 66 58 63 69 64 65 65 70 79 71 54 62 69 33 45 37 30 350 329 344 354 347 348 345 332 334 343 347 348 350 356 358 350 336 334 318 305 304 302 294 287 276 263 260 262 258
75 60 51 52 57 52 60 56 64 68 57 62 70 60 62 43 56 43 25 1 352 352 348 349 347 350 356 355 347 344 346 347 349 347 350 354 349 341 319 316 307 301 295 291 286 267 263 262 253
68 48 50 53 56 55 50 49 52 53 54 61 72 62 59 44 37 25 7 2 353 351 352 346 346 348 351 355 353 349 349 351 347 345 343 340 343 348 334 324 311 310 302 296 287 275 260 276 234
43 50 60 56 56 53 49 44 45 42 47 46 54 53 48 32 8 16 15 8 6 355 348 345 350 353 352 352 352 349 348 346 350 349 342 336 332 335 340 329 313 309 306 293 288 288 273 263 243
39 39 44 63 58 53 46 41 38 36 29 22 38 41 48 5 1 8 10 7 3 358 355 359 1 3 5 4 358 353 349 345 347 348 347 342 340 336 332 339 331 313 311 304 297 293 284 269 260
43 36 53 56 59 43 46 40 36 25 21 35 359 21 19 3 5 9 11 4 5 6 5 4 5 7 8 7 2 357 353 347 342 344 346 343 339 337 331 333 333 328 313 307 307 300 304 294 269
43 42 42 47 52 47 57 43 34 37 26 19 24 16 11 6 9 9 6 6 7 6 6 6 5 5 4 4 2 360 356 350 346 345 341 340 339 335 331 325 325 329 326 305 305 306 295 305 310
20 44 33 39 44 51 47 46 48 40 34 27 21 17 14 11 7 5 2 0 359 359 360 3 3 5 5 6 4 2 359 354 348 344 342 339 337 335 331 329 323 322 326 316 303 302 297 293 303
8 28 60 46 47 48 46 43 43 45 23 20 19 11 11 11 10 7 6 5 3 1 2 1 0 4 5 5 5 4 2 357 352 346 342 338 336 333 331 328 327 325 326 327 316 309 302 297 289
35 39 39 46 41 51 41 38 24 22 27 28 23 20 16 14 11 9 7 6 3 2 359 359 1 1 3 5 3 359 356 354 351 348 343 338 335 331 327 324 321 321 324 324 328 318 307 299 294
39 42 37 41 40 39 45 29 28 27 29 31 28 24 21 18 16 14 10 7 4 2 360 359 358 359 1 0 358 356 352 350 348 346 341 338 332 328 325 323 320 316 317 319 322 323 310 298 295
42 54 47 34 36 53 37 33 16 18 27 28 25 23 22 19 18 16 12 8 5 1 359 359 360 1 2 2 360 357 354 352 348 344 339 337 332 327 321 318 318 315 312 312 315 318 309 305 291
56 39 36 17 37 32 46 6 1 13 38 31 25 26 24 20 18 13 13 10 5 2 1 1 3 3 4 4 2 359 356 354 350 345 340 335 331 325 321 314 314 312 309 308 309 312 314 308 297
10 25 2 2 17 13 7 357 3 27 38 31 26 30 26 22 15 12 11 9 6 5 3 5 5 6 5 5 5 4 0 356 353 349 343 338 332 326 319 316 311 311 306 306 305 305 304 306 307
343 342 344 355 347 2 3 355 10 31 33 27 26 27 25 20 15 10 8 8 6 5 5 6 7 7 7 7 6 4 0 357 353 351 348 343 335 329 320 313 310 309 303 301 299 300 300 299 296
327 334 340 344 350 359 357 357 16 30 30 22 19 21 21 17 12 8 7 7 6 6 8 7 7 7 7 6 5 2 357 354 352 350 349 345 342 335 327 318 310 308 304 297 294 296 295 292 291
332 332 339 346 349 355 351 358 7 19 17 12 13 15 15 12 11 8 6 5 5 7 7 7 6 6 6 4 3 358 353 353 352 351 347 343 341 338 331 324 315 309 305 299 294 291 291 290 286
330 332 334 340 341 342 347 344 353 359 357 0 7 10 10 9 6 4 4 4 6 6 7 7 7 6 7 6 4 360 357 357 357 355 351 346 339 335 333 325 324 311 308 304 297 286 285 288 282
323 322 327 330 341 340 340 330 329 338 347 351 358 4 6 6 4 3 2 3 4 5 6 7 7 7 7 6 3 1 2 2 358 358 358 356 347 338 331 326 323 321 310 304 302 294 281 280 279
316 325 331 333 332 326 335 331 335 327 328 335 349 358 1 4 4 1 0 1 3 5 8 8 8 8 8 7 3 1 0 359 358 358 1 0 354 342 333 326 322 322 318 309 305 303 292 282 278
317 329 327 327 323 324 324 326 336 337 319 312 334 351 358 2 2 359 360 2 5 7 8 9 9 9 9 7 5 2 0 2 2 1 0 358 356 345 332 327 323 322 320 315 309 304 301 302 282
343 331 328 325 323 318 318 320 332 334 305 314 334 349 357 360 360 0 2 5 6 9 10 10 10 9 9 7 6 3 0 1 1 2 2 360 354 349 327 326 324 322 319 318 314 311 304 302 297
312 317 317 319 320 320 330 325 320 327 343 319 331 346 356 359 358 358 1 3 5 7 10 12 11 9 10 9 6 3 1 0 3 5 4 2 357 351 327 322 321 322 321 317 317 315 312 306 299
294 307 312 317 319 324 329 323 333 343 342 350 350 352 356 357 358 359 2 4 5 8 11 11 10 10 10 10 6 4 2 3 5 5 5 6 4 354 328 317 314 317 321 321 318 312 314 313 311
304 298 312 313 317 317 317 323 328 335 332 335 339 343 346 353 356 360 3 4 6 9 11 11 11 10 10 10 7 4 3 4 4 4 4 5 6 349 343 318 312 312 318 324 324 319 312 312 314
303 314 309 310 315 316 321 320 321 330 310 313 317 323 340 350 355 0 2 3 7 9 12 11 11 9 10 9 7 5 4 5 6 3 1 6 7 354 354 323 315 312 313 319 323 322 324 314 313
295 297 302 310 309 313 317 322 338 323 311 307 311 322 335 344 353 358 1 4 8 10 11 10 10 9 10 9 7 4 3 3 4 1 359 2 4 359 340 337 317 312 312 314 314 319 322 320 314
294 295 290 298 308 307 311 310 330 330 325 314 318 322 336 344 353 357 0 3 6 8 9 9 9 9 10 7 5 3 2 1 0 356 356 358 1 5 348 346 324 314 311 313 311 310 317 321 319